Regional Weather Roundup
Issued by NWS

Home | Current Version | Previous Version | Text Only | Print | Product List | Glossary Off
Versions: 1 2 3 4 5 6 7 8 9 10 11 12 13 14 15 16 17 18 19 20 21 22 23 24 25 26 27 28 29 30 31 32 33 34 35 36 37 38 39 40 41 42 43 44 45 46 47 48 49 50

478
ASUS43 KMKX 131720
RWRWI

WISCONSIN REGIONAL WEATHER ROUNDUP
NATIONAL WEATHER SERVICE MILWAUKEE/SULLIVAN WI
1100 AM CST SAT FEB 13 2016

NOTE: "FAIR" INDICATES FEW OR NO CLOUDS BELOW 12,000 FEET WITH NO
SIGNIFICANT WEATHER AND/OR OBSTRUCTIONS TO VISIBILITY.

WIZ001-002-006>008-014>016-023>028-131800-
NORTHWEST WISCONSIN

CITY           SKY/WX    TMP DP  RH WIND       PRES   REMARKS
SUPERIOR ARPT  SUNNY     -4 -16  55 SW7       30.62F WCI -17
ASHLAND        SUNNY     -1 -10  65 S6        30.58F WCI -13
HAYWARD        SUNNY     -4 -16  56 S6        30.55F WCI -16
SIREN          SUNNY     -1 -15  51 CALM      30.60F
CUMBERLAND     SUNNY     -4 -17  54 S3        30.57S
RICE LAKE      SUNNY     -3 -16  55 CALM      30.61S
CHETEK         SUNNY     -1 -14  54 CALM      30.60F
LADYSMITH      SUNNY     -2 -14  55 CALM      30.57F
EAU CLAIRE     SUNNY     -2 -13  59 CALM      30.62S
MENOMONIE      SUNNY      9 -10  40 CALM      30.63F
NEW RICHMOND   SUNNY     -1 -15  51 CALM      30.61F
OSCEOLA        SUNNY      1 -13  52 CALM      30.65F
$$

WIZ003>005-009-010-017-018-131800-
NORTH CENTRAL WISCONSIN

CITY           SKY/WX    TMP DP  RH WIND       PRES   REMARKS
MANITOWISH WTR PTSUNNY    1  -7  67 NW9       30.45S WCI -14
ARBOR VITAE    MOSUNNY    3  -6  67 NW7       30.45F WCI -10
WOODRUFF       MOSUNNY    3  -6  67 NW7       30.45F WCI -10
RHINELANDER    MOSUNNY    2  -8  63 MISG      30.45F
EAGLE RIVER    PTSUNNY    3  -8  61 NW9       30.44S WCI -12
LAND O LAKES   CLOUDY     4  -5  65 NW10      30.43S HAZE    WCI -11
PHILLIPS       SUNNY     -3 -12  67 CALM      30.50S
TOMAHAWK       SUNNY      0  -9  65 NW8       30.50S WCI -15
MEDFORD        SUNNY     -1 -12  59 NW7       30.51S WCI -15
MERRILL        SUNNY      1  -9  60 N6        30.52R WCI -10
$$

WIZ029-030-035-036-043>047-131800-
CENTRAL WISCONSIN

CITY           SKY/WX    TMP DP  RH WIND       PRES   REMARKS
WAUSAU         SUNNY      1 -10  60 NW7       30.52F WCI -12
MOSINEE        SUNNY      0  -9  65 NW9       30.53F WCI -16
MARSHFIELD     SUNNY     -1 -13  56 NW8       30.54S WCI -15
STEVENS POINT  SUNNY      2 -12  52 W6        30.55S WCI  -9
WAUPACA        SUNNY      8 -10  44 NW3       30.57F
WAUTOMA        SUNNY      4 -12  47 W8        30.59S WCI  -9
WISC RAPIDS    SUNNY      1 -12  54 N10       30.58S WCI -15
CAMP DOUGLAS   SUNNY      1 -11  55 W9        30.59F WCI -14
$$

WIZ011>013-019>022-031-037>040-048>050-131800-
NORTHEAST WISCONSIN

CITY           SKY/WX    TMP DP  RH WIND       PRES   REMARKS
ANTIGO         SUNNY      1  -8  66 NW10      30.46F WCI -16
SHAWANO        SUNNY      7  -8  50 W8        30.54F WCI  -6
OCONTO         SUNNY      6  -8  53 NW8       30.54S WCI  -7
STURGEON BAY   SUNNY      7  -8  51 NW15G22   30.52S WCI -11
GREEN BAY      SUNNY      5  -7  57 W9        30.55F WCI  -9
MANITOWOC      SUNNY      8  -6  52 NW13      30.56R WCI  -8
APPLETON       SUNNY      3 -11  51 W12       30.53S WCI -13
CLINTONVILLE   SUNNY      5  -9  51 NW7       30.55F WCI  -7
OSHKOSH        SUNNY      3  -9  57 NW7       30.56S WCI  -9
$$

WIZ032>034-041-042-053>061-131800-
SOUTHWEST WISCONSIN

CITY           SKY/WX    TMP DP  RH WIND       PRES   REMARKS
LA CROSSE      SUNNY      3 -12  49 N6        30.66S WCI  -8
SPARTA         SUNNY      3 -12  50 W6        30.63S WCI  -8
VIROQUA        SUNNY      1 -13  51 NW6       30.57S WCI -10
BOSCOBEL       SUNNY      6 -12  43 NW5       30.65F WCI  -3
PRAIRIE DU CHI SUNNY      4 -14  43 CALM      30.65F
PLATTEVILLE    SUNNY      3 -10  54 NW5       30.61F WCI  -6
$$

WIZ056-057-062-063-064-067-068-131800-
SOUTH CENTRAL WISCONSIN

CITY           SKY/WX    TMP DP  RH WIND       PRES   REMARKS
REEDSBURG      SUNNY      1 -12  53 W6        30.60S WCI -10
BARABOO/DELLS  SUNNY      2 -13  49 W7        30.58S WCI -10
LONE ROCK      SUNNY      4 -12  48 W8        30.64S WCI  -9
MINERAL POINT  SUNNY      3 -11  51 W8        30.58F WCI -10
MADISON        SUNNY      3 -11  52 VRB7      30.60R WCI  -9
MIDDLETON      SUNNY      6 -10  49 W7        30.60S WCI  -6
WATERTOWN      SUNNY      5  -7  56 NW6       30.58R WCI  -5
MONROE         SUNNY      9  -8  47 NW6       30.57S WCI  -1
JANESVILLE     SUNNY      9  -8  47 NW7       30.60R WCI  -3
$$

WIZ051-052-058>065-066-070>072-131800-
SOUTHEAST WISCONSIN

CITY           SKY/WX    TMP DP  RH WIND       PRES   REMARKS
MILWAUKEE      MOSUNNY    8  -9  45 NW13      30.57F WCI  -8
WAUKESHA       SUNNY      3  -9  55 NW12      30.57S WCI -13
MILWAUKEE/TIMM SUNNY      7  -9  47 NW8       30.58S WCI  -6
RACINE         SUNNY      8  -9  45 N12G21    30.58F WCI  -7
BURLINGTON     SUNNY      6  -9  50 W8        30.58R WCI  -6
KENOSHA        SUNNY      9  -5  53 NW9G17    30.57F WCI  -4
FOND DU LAC    SUNNY      3  -9  57 NW13      30.57S WCI -14
SHEBOYGAN      SUNNY      3  -9  57 NW13      30.55S WCI -14
WEST BEND      SUNNY      5  -9  51 NW9       30.55S WCI  -9
JUNEAU         SUNNY      1 -10  60 NW8       30.58S WCI -13
$$

LSZ147-162-131800-
LAKE SUPERIOR

STATION/POSITION TIME  TEMP    WIND        PRES    WAVE
                       AIR SEA DIR/SP/G            HT/PER
                 (UTC) (F)     (DEG/KT/KT) (MB)    (FT/S)
DEVILS ISLAND    1700    2     300/  8/ 11 1037.4F
SAXON HARBOR     1640    2                 1035.6S
$$

LMZ867-665-643>646-131800-
LAKE MICHIGAN

STATION/POSITION TIME  TEMP    WIND        PRES    WAVE
                       AIR SEA DIR/SP/G            HT/PER
                 (UTC) (F)     (DEG/KT/KT) (MB)    (FT/S)
CHAMBERS ISLAND  1600    6     300/ 12/ 18 1032.5R
SISTER BAY       1605    9     330/ 21/ 24   N/A
ALGOMA LAKESHORE 1641          300/  8/ 13   N/A
KEWAUNEE LAKESHO 1700    4     310/ 15/ 20 1032.7S
SHEBOYGAN LAKESH 1700    4     300/ 15/ 17 1036.8S
PORT WASHINGTON  1600    4     300/  9/ 14 1036.2R
MILWAUKEE LAKESH 1710    8     320/ 11/ 14   N/A
KENOSHA   LAKESH 1700    6     330/ 12/ 16 1035.2F
$$

TC  - TEMPERATURE IN CELSIUS
VSB - VISIBILITY IN STATUTE MILES
WCI - WIND CHILL INDEX
HX  - HEAT INDEX





USA.gov is the U.S. government's official web portal to all federal, state and local government web resources and services.